STARLINK-36703, 67650

Orbit data source: Space-Track

STARLINK-36703, 67650 is a payload satellite owned by SpaceX/Seattle (US) in SSO that was launched on Mon, 02 Feb 2026 UTC via an FALCON 9 launch vehicle from the Air Force Western Test Range (AFWTR). Payload-class satellites include a variety of spacecraft equipped with specific instruments for various scientific and technological missions. These include communications satellites like Starlink; space stations such as the ISS; scientific satellites like the Hubble; Earth observation satellites from companies like Planet Labs, Umbra, and HawkEye 360; GPS; miniature CubeSats for education and research; and military/defense satellites.

Loading next visibility...
Identifier
67650, 2026-022C
Orbit
SSO
Country
Flag of USUS
Related business
Manufacturer
SpaceX/Seattle
Mission
Operational spacecraft
Bus & Motor
STARLINK V2MO, Unknown motor
Mass
575 kg wet, ~530 kg dry
Launch date (UTC)
2026-02-02 (2 months ago)
Launch vehicle
FALCON 9
Launch site
Air Force Western Test Range (AFWTR)
Object type
Payload
Rocket body
Debris
Shape & HBR
Unknown shape, 17.7 m
Radar Cross Section
RCS unknown

Expand to show TLE details & history
Last TLE update: 14 hours ago

TLE from 14 hours ago
0 STARLINK-36703
1 67650U 26022C   26095.05963970  .00048073  00000-0  14412-2 0  9993
2 67650  97.2839 129.0178 0002605 103.7526 256.4007 15.34328324  9614
Epoch: 2026-04-05T01:25Z
TLE epoch observation values (Epoch: 2026-04-05T01:25:52.870Z)
Latitude
-0.00003°
Longitude
-85.82298°
Altitude
466.449 km
Speed
7.633 km/s
True Right ascension
08h 36m 04s
True Declination
0° 00' 00"
Sunlit
Object was in full shadow at epoch
Visualization orbit readout
Latitude
Unknown
Longitude
Unknown
Altitude
Unknown
Speed
Unknown
Apparent Right ascension
Unknown
Apparent Declination
Unknown
Sunlit
N/A
Visualization observer readout
Local Sidereal Time
20:55:56
Azimuth
Unknown
Elevation
Unknown
Doppler factor
Unknown
Orbital elements
Apogee altitude
461.639 km
Perigee altitude
458.077 km
Semi-major axis
6,837.995 km
Eccentricity
0.00026
Inclination
97.2839°
RAAN
129.0178°
Arg. of periapsis
103.7526°
True anomaly
256.37169°
Mean anomaly
256.4007°
Eccentric anomaly
256.38619°
Mean motion
3.8384 °/min
Orbital period
93.79 mins
BSTAR
0.0014412
Loading maneuver chart data...
Computing Atmospheric mass density...
Loading historical data...
Loading historical data...
Loading historical data...
Loading historical data...
Loading historical data...
Loading historical data...
Loading historical data...

Documentation

Showing up to 5 results
|